QPF
0.08 0.08 0.10 0.12 0.10 0.12 0.13 0.11 0.11 0.14 0.16 0.14 0.10 0.06 0.04 0.03 0.04 0.04 0.04 0.05 0.06 0.07 0.07 0.07 0.07 0.09 0.09 0.09 0.10 0.11 0.10 0.09 0.09 0.08 0.06 0.06 0.06 0.07 0.09 0.09 0.10 0.09 0.06
0.07 0.07 0.09 0.12 0.11 0.10 0.11 0.11 0.10 0.11 0.12 0.12 0.10 0.06 0.04 0.03 0.03 0.03 0.04 0.04 0.05 0.05 0.06 0.06 0.06 0.07 0.08 0.09 0.10 0.11 0.11 0.10 0.09 0.08 0.08 0.08 0.08 0.09 0.10 0.11 0.11 0.13 0.10
0.07 0.06 0.08 0.10 0.10 0.10 0.10 0.11 0.11 0.10 0.10 0.10 0.09 0.07 0.05 0.04 0.03 0.03 0.04 0.04 0.04 0.04 0.05 0.06 0.06 0.06 0.07 0.08 0.08 0.09 0.09 0.08 0.07 0.07 0.07 0.07 0.08 0.09 0.10 0.12 0.13 0.14 0.13
0.07 0.06 0.07 0.08 0.08 0.09 0.10 0.11 0.10 0.08 0.08 0.09 0.08 0.07 0.06 0.05 0.04 0.04 0.04 0.04 0.04 0.04 0.04 0.05 0.05 0.06 0.06 0.07 0.07 0.07 0.07 0.08 0.08 0.08 0.07 0.07 0.07 0.08 0.08 0.10 0.13 0.13 0.12
0.08 0.07 0.07 0.07 0.06 0.08 0.09 0.09 0.09 0.08 0.07 0.07 0.07 0.07 0.06 0.06 0.06 0.05 0.05 0.04 0.05 0.05 0.05 0.05 0.05 0.06 0.06 0.07 0.07 0.07 0.07 0.07 0.08 0.08 0.08 0.07 0.06 0.06 0.07 0.09 0.09 0.10 0.11
0.08 0.07 0.07 0.07 0.07 0.06 0.07 0.08 0.08 0.08 0.07 0.07 0.07 0.06 0.06 0.06 0.07 0.07 0.06 0.05 0.06 0.06 0.06 0.05 0.05 0.05 0.05 0.06 0.07 0.07 0.07 0.07 0.07 0.07 0.07 0.06 0.05 0.05 0.05 0.06 0.06 0.08 0.10
0.06 0.06 0.07 0.07 0.08 0.07 0.05 0.05 0.06 0.06 0.06 0.06 0.06 0.05 0.06 0.06 0.06 0.06 0.07 0.07 0.07 0.06 0.06 0.06 0.06 0.06 0.06 0.05 0.05 0.05 0.05 0.06 0.06 0.06 0.06 0.05 0.05 0.04 0.04 0.04 0.05 0.06 0.07
0.04 0.05 0.06 0.06 0.06 0.06 0.05 0.04 0.04 0.04 0.05 0.05 0.05 0.04 0.05 0.05 0.06 0.07 0.06 0.06 0.06 0.07 0.07 0.07 0.06 0.06 0.06 0.06 0.06 0.05 0.04 0.05 0.05 0.04 0.04 0.04 0.03 0.04 0.04 0.04 0.05 0.06 0.06
0.03 0.04 0.06 0.05 0.05 0.04 0.04 0.03 0.03 0.03 0.03 0.04 0.04 0.04 0.05 0.05 0.05 0.06 0.06 0.05 0.06 0.06 0.07 0.07 0.06 0.05 0.05 0.05 0.04 0.04 0.03 0.04 0.04 0.04 0.05 0.05 0.05 0.05 0.05 0.05 0.07 0.08 0.06
0.04 0.05 0.05 0.04 0.04 0.03 0.02 0.02 0.02 0.03 0.04 0.04 0.04 0.04 0.05 0.05 0.05 0.05 0.06 0.05 0.05 0.06 0.06 0.06 0.06 0.05 0.05 0.04 0.04 0.03 0.03 0.04 0.04 0.04 0.05 0.04 0.04 0.05 0.06 0.05 0.05 0.06 0.05
0.05 0.05 0.05 0.04 0.03 0.03 0.02 0.02 0.02 0.02 0.03 0.04 0.04 0.04 0.04 0.04 0.04 0.05 0.05 0.05 0.05 0.05 0.05 0.05 0.05 0.05 0.05 0.04 0.04 0.04 0.04 0.03 0.04 0.05 0.05 0.05 0.05 0.06 0.07 0.07 0.06 0.05 0.04
0.05 0.05 0.05 0.04 0.04 0.04 0.03 0.02 0.02 0.02 0.02 0.03 0.04 0.04 0.04 0.03 0.03 0.04 0.04 0.05 0.05 0.05 0.05 0.05 0.05 0.05 0.05 0.04 0.04 0.05 0.05 0.04 0.05 0.06 0.06 0.06 0.06 0.06 0.07 0.08 0.08 0.07 0.05
0.05 0.05 0.05 0.05 0.05 0.04 0.04 0.03 0.02 0.02 0.02 0.03 0.03 0.03 0.03 0.03 0.04 0.04 0.04 0.04 0.04 0.04 0.04 0.05 0.05 0.05 0.04 0.04 0.04 0.05 0.06 0.05 0.06 0.07 0.07 0.07 0.06 0.06 0.06 0.07 0.08 0.07 0.07
0.04 0.04 0.04 0.04 0.04 0.05 0.05 0.04 0.03 0.03 0.03 0.03 0.03 0.03 0.03 0.03 0.04 0.05 0.04 0.03 0.03 0.03 0.04 0.04 0.05 0.05 0.05 0.06 0.05 0.05 0.06 0.07 0.07 0.07 0.07 0.07 0.06 0.06 0.06 0.05 0.06 0.07 0.08
0.04 0.04 0.04 0.04 0.03 0.03 0.04 0.04 0.03 0.03 0.04 0.04 0.04 0.03 0.04 0.05 0.05 0.07 0.06 0.04 0.04 0.04 0.04 0.04 0.04 0.05 0.06 0.06 0.05 0.05 0.06 0.07 0.07 0.07 0.07 0.07 0.07 0.07 0.06 0.05 0.05 0.06 0.07
0.05 0.05 0.04 0.03 0.03 0.03 0.03 0.03 0.03 0.04 0.04 0.04 0.04 0.04 0.04 0.05 0.06 0.06 0.05 0.05 0.04 0.04 0.04 0.04 0.04 0.04 0.05 0.05 0.05 0.06 0.06 0.07 0.08 0.08 0.08 0.07 0.06 0.06 0.06 0.05 0.04 0.05 0.06
0.04 0.04 0.04 0.03 0.03 0.03 0.03 0.02 0.02 0.03 0.03 0.03 0.03 0.03 0.04 0.04 0.05 0.05 0.04 0.04 0.03 0.03 0.03 0.03 0.04 0.04 0.04 0.05 0.05 0.05 0.06 0.06 0.07 0.08 0.08 0.08 0.06 0.06 0.05 0.05 0.05 0.05 0.05
0.04 0.04 0.04 0.04 0.03 0.03 0.02 0.02 0.02 0.02 0.02 0.02 0.02 0.02 0.03 0.04 0.04 0.04 0.03 0.03 0.03 0.03 0.03 0.03 0.04 0.04 0.04 0.05 0.05 0.05 0.05 0.06 0.06 0.07 0.07 0.07 0.07 0.06 0.06 0.05 0.05 0.05 0.05
0.03 0.04 0.04 0.03 0.03 0.03 0.03 0.03 0.03 0.02 0.02 0.01 0.01 0.02 0.02 0.03 0.03 0.02 0.02 0.02 0.02 0.03 0.03 0.03 0.04 0.04 0.05 0.05 0.05 0.05 0.05 0.05 0.05 0.06 0.07 0.07 0.06 0.06 0.06 0.06 0.05 0.05 0.05
0.03 0.03 0.03 0.03 0.03 0.02 0.02 0.03 0.04 0.03 0.02 0.02 0.02 0.02 0.01 0.01 0.02 0.02 0.02 0.02 0.02 0.03 0.03 0.04 0.04 0.04 0.05 0.05 0.05 0.05 0.04 0.04 0.05 0.06 0.06 0.07 0.06 0.06 0.06 0.06 0.06 0.05 0.06
0.02 0.02 0.02 0.02 0.02 0.02 0.02 0.03 0.03 0.03 0.02 0.02 0.01 0.01 0.02 0.02 0.02 0.02 0.02 0.02 0.02 0.03 0.03 0.04 0.04 0.04 0.05 0.05 0.05 0.04 0.04 0.04 0.05 0.05 0.05 0.06 0.06 0.06 0.06 0.06 0.06 0.06 0.06
0.02 0.02 0.02 0.02 0.02 0.02 0.03 0.03 0.03 0.03 0.02 0.02 0.01 0.01 0.01 0.01 0.01 0.01 0.01 0.02 0.02 0.03 0.03 0.04 0.04 0.04 0.05 0.05 0.05 0.04 0.04 0.04 0.04 0.05 0.05 0.05 0.05 0.05 0.05 0.05 0.06 0.05 0.05
0.02 0.03 0.02 0.02 0.02 0.03 0.03 0.03 0.03 0.03 0.02 0.02 0.01 0.01 0.01 0.01 0.02 0.02 0.02 0.02 0.02 0.03 0.03 0.04 0.04 0.04 0.04 0.04 0.03 0.03 0.03 0.03 0.04 0.04 0.05 0.05 0.05 0.05 0.06 0.05 0.05 0.05 0.05
0.03 0.03 0.03 0.02 0.03 0.03 0.03 0.03 0.03 0.02 0.02 0.02 0.01 0.01 0.02 0.02 0.02 0.02 0.02 0.02 0.02 0.03 0.03 0.03 0.04 0.04 0.04 0.03 0.03 0.03 0.03 0.03 0.03 0.04 0.05 0.06 0.06 0.05 0.05 0.05 0.05 0.05 0.05
0.02 0.03 0.03 0.03 0.03 0.03 0.03 0.02 0.02 0.02 0.02 0.02 0.02 0.02 0.02 0.02 0.02 0.02 0.02 0.02 0.02 0.02 0.03 0.03 0.04 0.04 0.04 0.03 0.02 0.02 0.03 0.03 0.04 0.05 0.06 0.06 0.06 0.06 0.06 0.05 0.05 0.05 0.04
0.02 0.02 0.03 0.03 0.03 0.03 0.02 0.02 0.02 0.02 0.02 0.02 0.02 0.02 0.02 0.02 0.02 0.02 0.02 0.02 0.02 0.02 0.02 0.03 0.04 0.04 0.03 0.03 0.03 0.03 0.03 0.03 0.03 0.04 0.05 0.05 0.05 0.05 0.05 0.05 0.05 0.04 0.04
MSLP
1007.34 1007.80 1008.27 1008.72 1009.10 1009.41 1009.67 1009.89 1010.12 1010.38 1010.68 1011.04 1011.43 1011.82 1012.18 1012.46 1012.65 1012.75 1012.75 1012.69 1012.58 1012.46 1012.31 1012.13 1011.89 1011.57 1011.11 1010.50 1009.72 1008.80 1007.78 1006.71 1005.67 1004.72 1003.91 1003.28 1002.84 1002.55 1002.40 1002.33 1002.32 1002.33 1002.34
1006.68 1007.10 1007.54 1007.98 1008.37 1008.71 1009.01 1009.28 1009.56 1009.87 1010.21 1010.60 1011.00 1011.38 1011.71 1011.95 1012.09 1012.13 1012.08 1011.97 1011.82 1011.66 1011.50 1011.34 1011.13 1010.85 1010.46 1009.92 1009.22 1008.37 1007.39 1006.35 1005.30 1004.32 1003.45 1002.76 1002.24 1001.89 1001.70 1001.62 1001.63 1001.69 1001.78
1006.04 1006.43 1006.86 1007.28 1007.67 1008.03 1008.35 1008.66 1008.97 1009.31 1009.69 1010.08 1010.48 1010.84 1011.14 1011.34 1011.43 1011.42 1011.32 1011.16 1010.98 1010.80 1010.64 1010.48 1010.31 1010.08 1009.75 1009.29 1008.66 1007.88 1006.96 1005.96 1004.92 1003.93 1003.03 1002.28 1001.70 1001.31 1001.08 1001.00 1001.02 1001.13 1001.29
1005.42 1005.80 1006.22 1006.63 1007.03 1007.39 1007.73 1008.06 1008.40 1008.75 1009.13 1009.52 1009.90 1010.24 1010.50 1010.66 1010.70 1010.65 1010.51 1010.33 1010.13 1009.94 1009.77 1009.63 1009.49 1009.30 1009.03 1008.63 1008.07 1007.35 1006.49 1005.52 1004.50 1003.50 1002.58 1001.79 1001.18 1000.75 1000.50 1000.42 1000.48 1000.63 1000.86
1004.84 1005.22 1005.63 1006.05 1006.45 1006.82 1007.17 1007.52 1007.86 1008.22 1008.59 1008.96 1009.31 1009.61 1009.83 1009.94 1009.95 1009.87 1009.71 1009.50 1009.30 1009.11 1008.95 1008.83 1008.71 1008.56 1008.33 1007.97 1007.46 1006.78 1005.95 1005.01 1004.00 1002.99 1002.06 1001.25 1000.61 1000.17 999.93 999.86 999.95 1000.17 1000.46
1004.28 1004.67 1005.10 1005.53 1005.94 1006.33 1006.69 1007.04 1007.38 1007.73 1008.09 1008.43 1008.74 1008.99 1009.16 1009.23 1009.21 1009.10 1008.92 1008.71 1008.51 1008.34 1008.20 1008.09 1007.99 1007.86 1007.64 1007.30 1006.81 1006.15 1005.33 1004.39 1003.39 1002.38 1001.43 1000.62 999.98 999.54 999.31 999.29 999.43 999.71 1000.08
1003.78 1004.19 1004.64 1005.08 1005.51 1005.90 1006.28 1006.63 1006.97 1007.31 1007.63 1007.94 1008.20 1008.40 1008.51 1008.54 1008.48 1008.35 1008.17 1007.96 1007.78 1007.62 1007.50 1007.41 1007.32 1007.19 1006.98 1006.63 1006.13 1005.46 1004.64 1003.70 1002.68 1001.66 1000.72 999.90 999.28 998.86 998.68 998.70 998.91 999.26 999.71
1003.36 1003.80 1004.26 1004.71 1005.15 1005.55 1005.93 1006.29 1006.62 1006.93 1007.22 1007.48 1007.69 1007.83 1007.89 1007.87 1007.78 1007.62 1007.44 1007.25 1007.07 1006.94 1006.84 1006.76 1006.68 1006.55 1006.32 1005.96 1005.44 1004.75 1003.90 1002.94 1001.92 1000.90 999.96 999.16 998.57 998.19 998.06 998.15 998.42 998.85 999.38
1003.08 1003.52 1003.98 1004.43 1004.86 1005.26 1005.64 1005.98 1006.30 1006.59 1006.84 1007.05 1007.20 1007.28 1007.29 1007.22 1007.09 1006.92 1006.73 1006.55 1006.40 1006.29 1006.21 1006.15 1006.07 1005.93 1005.69 1005.30 1004.76 1004.04 1003.18 1002.20 1001.18 1000.17 999.25 998.49 997.93 997.61 997.53 997.68 998.03 998.52 999.11
1002.97 1003.39 1003.81 1004.24 1004.64 1005.02 1005.38 1005.71 1006.00 1006.26 1006.47 1006.63 1006.73 1006.75 1006.70 1006.59 1006.43 1006.24 1006.05 1005.88 1005.75 1005.66 1005.61 1005.56 1005.49 1005.34 1005.09 1004.69 1004.13 1003.40 1002.53 1001.56 1000.55 999.57 998.69 997.97 997.47 997.20 997.18 997.38 997.78 998.32 998.96
1003.07 1003.43 1003.79 1004.16 1004.51 1004.85 1005.17 1005.46 1005.72 1005.94 1006.11 1006.23 1006.27 1006.23 1006.14 1005.98 1005.79 1005.59 1005.40 1005.25 1005.14 1005.08 1005.04 1005.01 1004.95 1004.81 1004.56 1004.16 1003.59 1002.87 1002.02 1001.08 1000.11 999.18 998.35 997.70 997.25 997.03 997.06 997.30 997.73 998.30 998.95
1003.39 1003.66 1003.93 1004.20 1004.48 1004.75 1005.01 1005.26 1005.47 1005.65 1005.78 1005.84 1005.83 1005.75 1005.62 1005.43 1005.22 1005.01 1004.82 1004.68 1004.59 1004.55 1004.54 1004.53 1004.48 1004.35 1004.11 1003.72 1003.18 1002.49 1001.68 1000.80 999.89 999.03 998.28 997.70 997.31 997.14 997.20 997.46 997.90 998.45 999.09
1003.92 1004.06 1004.22 1004.38 1004.56 1004.74 1004.93 1005.12 1005.28 1005.41 1005.49 1005.50 1005.45 1005.33 1005.16 1004.95 1004.73 1004.51 1004.33 1004.20 1004.13 1004.11 1004.12 1004.12 1004.09 1003.98 1003.76 1003.40 1002.89 1002.26 1001.52 1000.71 999.90 999.13 998.47 997.96 997.64 997.52 997.60 997.86 998.27 998.79 999.37
1004.61 1004.62 1004.64 1004.69 1004.76 1004.85 1004.95 1005.07 1005.17 1005.24 1005.27 1005.24 1005.15 1005.00 1004.80 1004.57 1004.33 1004.12 1003.95 1003.83 1003.77 1003.76 1003.78 1003.80 1003.78 1003.68 1003.49 1003.16 1002.71 1002.15 1001.49 1000.78 1000.08 999.42 998.86 998.44 998.19 998.11 998.20 998.45 998.81 999.27 999.78
1005.37 1005.26 1005.16 1005.09 1005.05 1005.05 1005.07 1005.11 1005.15 1005.17 1005.14 1005.07 1004.94 1004.76 1004.53 1004.29 1004.05 1003.83 1003.66 1003.55 1003.50 1003.50 1003.52 1003.54 1003.53 1003.45 1003.28 1002.99 1002.60 1002.11 1001.55 1000.96 1000.37 999.83 999.38 999.06 998.87 998.83 998.93 999.16 999.48 999.86 1000.28
1006.11 1005.89 1005.69 1005.52 1005.40 1005.31 1005.26 1005.24 1005.21 1005.17 1005.10 1004.98 1004.81 1004.60 1004.35 1004.10 1003.85 1003.63 1003.47 1003.36 1003.31 1003.30 1003.32 1003.34 1003.32 1003.25 1003.10 1002.86 1002.52 1002.11 1001.65 1001.16 1000.69 1000.28 999.94 999.71 999.60 999.61 999.72 999.92 1000.19 1000.50 1000.82
1006.72 1006.42 1006.15 1005.92 1005.74 1005.59 1005.49 1005.40 1005.32 1005.23 1005.11 1004.94 1004.74 1004.50 1004.23 1003.96 1003.71 1003.49 1003.32 1003.21 1003.16 1003.14 1003.15 1003.16 1003.14 1003.07 1002.94 1002.72 1002.44 1002.10 1001.73 1001.35 1001.00 1000.70 1000.48 1000.35 1000.31 1000.36 1000.49 1000.68 1000.90 1001.15 1001.39
1007.12 1006.79 1006.49 1006.22 1006.00 1005.82 1005.68 1005.55 1005.43 1005.29 1005.12 1004.91 1004.67 1004.40 1004.12 1003.84 1003.58 1003.36 1003.19 1003.08 1003.02 1003.00 1003.00 1003.00 1002.97 1002.90 1002.78 1002.59 1002.36 1002.09 1001.80 1001.52 1001.27 1001.08 1000.96 1000.92 1000.95 1001.05 1001.20 1001.38 1001.57 1001.76 1001.93
1007.28 1006.94 1006.64 1006.37 1006.15 1005.96 1005.79 1005.64 1005.48 1005.30 1005.09 1004.85 1004.57 1004.28 1003.98 1003.69 1003.43 1003.22 1003.05 1002.94 1002.89 1002.86 1002.86 1002.85 1002.82 1002.75 1002.64 1002.48 1002.29 1002.08 1001.86 1001.67 1001.51 1001.41 1001.38 1001.41 1001.50 1001.65 1001.82 1002.00 1002.17 1002.31 1002.42
1007.19 1006.88 1006.60 1006.36 1006.15 1005.96 1005.79 1005.62 1005.43 1005.22 1004.98 1004.71 1004.41 1004.10 1003.79 1003.50 1003.25 1003.04 1002.89 1002.79 1002.74 1002.72 1002.72 1002.71 1002.69 1002.63 1002.54 1002.41 1002.26 1002.10 1001.94 1001.82 1001.74 1001.71 1001.75 1001.84 1001.98 1002.15 1002.33 1002.51 1002.66 1002.77 1002.83
1006.91 1006.64 1006.39 1006.18 1006.00 1005.83 1005.66 1005.48 1005.28 1005.05 1004.78 1004.49 1004.18 1003.86 1003.55 1003.26 1003.02 1002.84 1002.70 1002.62 1002.59 1002.59 1002.60 1002.60 1002.59 1002.56 1002.49 1002.39 1002.28 1002.17 1002.07 1002.00 1001.98 1002.01 1002.09 1002.22 1002.38 1002.56 1002.75 1002.91 1003.03 1003.11 1003.13
1006.51 1006.28 1006.08 1005.90 1005.75 1005.60 1005.43 1005.25 1005.04 1004.79 1004.51 1004.20 1003.88 1003.56 1003.26 1002.99 1002.77 1002.61 1002.50 1002.45 1002.44 1002.46 1002.49 1002.52 1002.54 1002.53 1002.49 1002.44 1002.37 1002.30 1002.25 1002.22 1002.24 1002.30 1002.40 1002.55 1002.71 1002.89 1003.05 1003.18 1003.27 1003.30 1003.28
1006.08 1005.88 1005.71 1005.57 1005.43 1005.29 1005.13 1004.94 1004.72 1004.46 1004.17 1003.86 1003.54 1003.23 1002.94 1002.70 1002.50 1002.36 1002.29 1002.26 1002.28 1002.33 1002.39 1002.46 1002.50 1002.53 1002.53 1002.52 1002.49 1002.46 1002.45 1002.46 1002.50 1002.58 1002.68 1002.82 1002.96 1003.11 1003.23 1003.32 1003.36 1003.34 1003.27
1005.67 1005.50 1005.36 1005.23 1005.10 1004.96 1004.80 1004.60 1004.37 1004.10 1003.80 1003.49 1003.18 1002.88 1002.61 1002.39 1002.22 1002.11 1002.06 1002.07 1002.12 1002.19 1002.28 1002.38 1002.46 1002.52 1002.56 1002.59 1002.60 1002.62 1002.64 1002.67 1002.73 1002.81 1002.90 1003.01 1003.12 1003.21 1003.28 1003.31 1003.29 1003.22 1003.10
1005.33 1005.17 1005.04 1004.91 1004.78 1004.63 1004.45 1004.23 1003.99 1003.71 1003.41 1003.10 1002.79 1002.51 1002.26 1002.06 1001.92 1001.84 1001.81 1001.84 1001.91 1002.01 1002.13 1002.25 1002.36 1002.46 1002.54 1002.61 1002.66 1002.71 1002.76 1002.81 1002.88 1002.95 1003.02 1003.10 1003.16 1003.20 1003.20 1003.17 1003.09 1002.96 1002.79
1005.05 1004.89 1004.75 1004.61 1004.46 1004.29 1004.08 1003.85 1003.58 1003.29 1002.98 1002.67 1002.38 1002.11 1001.88 1001.70 1001.58 1001.52 1001.51 1001.56 1001.65 1001.76 1001.90 1002.04 1002.18 1002.30 1002.42 1002.52 1002.61 1002.69 1002.77 1002.84 1002.91 1002.97 1003.03 1003.06 1003.08 1003.06 1003.01 1002.92 1002.78 1002.61 1002.39
Thickness
5471 5471 5471 5471 5470 5471 5472 5473 5474 5475 5477 5479 5481 5482 5483 5484 5485 5486 5487 5488 5489 5490 5492 5495 5497 5498 5500 5501 5502 5503 5505 5506 5509 5513 5513 5516 5517 5518 5519 5520 5522 5523 5524
5462 5463 5463 5462 5462 5463 5464 5465 5466 5466 5467 5470 5471 5472 5473 5474 5475 5475 5477 5478 5479 5480 5481 5483 5486 5488 5489 5490 5492 5494 5496 5497 5499 5502 5503 5505 5507 5509 5510 5511 5513 5515 5515
5453 5454 5454 5454 5455 5456 5457 5458 5457 5457 5459 5460 5461 5462 5463 5464 5464 5465 5466 5467 5468 5470 5471 5473 5476 5477 5479 5480 5482 5484 5486 5488 5489 5492 5494 5496 5497 5499 5500 5502 5504 5505 5507
5445 5446 5447 5447 5448 5449 5450 5450 5450 5449 5451 5452 5452 5453 5454 5455 5456 5456 5456 5457 5458 5460 5461 5463 5466 5468 5470 5471 5473 5475 5476 5477 5479 5482 5485 5487 5488 5489 5491 5492 5494 5496 5497
5436 5437 5438 5439 5440 5441 5442 5443 5442 5442 5443 5444 5444 5445 5445 5446 5447 5447 5447 5448 5450 5451 5452 5454 5457 5459 5460 5463 5465 5466 5467 5468 5469 5472 5475 5477 5480 5481 5483 5484 5485 5486 5487
5426 5428 5429 5431 5432 5433 5434 5435 5435 5435 5435 5436 5436 5437 5437 5438 5439 5440 5440 5441 5443 5444 5445 5447 5449 5450 5451 5454 5457 5459 5460 5460 5461 5463 5466 5469 5473 5474 5475 5475 5476 5476 5477
5419 5420 5421 5423 5424 5425 5425 5427 5427 5426 5427 5428 5428 5428 5429 5430 5432 5433 5434 5435 5436 5437 5438 5440 5441 5443 5443 5445 5447 5450 5451 5452 5453 5455 5457 5460 5464 5466 5467 5467 5467 5467 5468
5411 5412 5413 5415 5416 5416 5416 5418 5418 5418 5419 5420 5420 5421 5422 5423 5425 5426 5428 5428 5429 5429 5431 5432 5433 5434 5436 5437 5439 5441 5441 5442 5444 5446 5449 5453 5455 5457 5458 5459 5459 5458 5458
5403 5405 5406 5407 5408 5408 5409 5409 5409 5410 5411 5412 5413 5414 5414 5415 5417 5419 5420 5420 5421 5422 5423 5424 5425 5426 5428 5429 5430 5432 5433 5434 5435 5438 5441 5444 5447 5449 5451 5451 5451 5451 5451
5395 5397 5398 5399 5399 5400 5401 5400 5401 5402 5402 5404 5405 5406 5406 5407 5409 5411 5412 5413 5413 5414 5415 5415 5417 5418 5419 5419 5420 5421 5422 5424 5426 5429 5431 5435 5437 5440 5442 5444 5445 5444 5443
5388 5389 5390 5391 5391 5392 5392 5392 5393 5393 5394 5395 5397 5398 5398 5399 5401 5403 5404 5405 5405 5405 5406 5407 5408 5409 5410 5411 5412 5413 5415 5416 5417 5419 5422 5426 5429 5431 5434 5435 5436 5437 5437
5381 5382 5382 5383 5383 5384 5384 5384 5385 5385 5386 5387 5388 5389 5390 5391 5392 5394 5396 5398 5398 5398 5398 5399 5399 5401 5403 5404 5405 5407 5408 5409 5410 5412 5415 5417 5420 5423 5426 5427 5428 5429 5430
5374 5374 5375 5375 5375 5376 5376 5377 5377 5378 5379 5380 5381 5381 5382 5383 5384 5386 5388 5390 5390 5390 5391 5392 5393 5394 5396 5397 5398 5399 5400 5401 5403 5405 5409 5411 5414 5416 5418 5419 5420 5421 5422
5366 5367 5368 5368 5369 5369 5369 5370 5370 5370 5372 5373 5373 5373 5374 5375 5376 5378 5380 5381 5382 5383 5383 5384 5386 5388 5389 5390 5391 5391 5392 5395 5397 5399 5402 5404 5407 5409 5411 5413 5414 5414 5415
5359 5360 5361 5361 5362 5362 5363 5362 5363 5364 5365 5366 5366 5366 5367 5369 5370 5372 5373 5374 5376 5376 5377 5378 5379 5379 5380 5382 5382 5383 5385 5387 5389 5392 5395 5397 5399 5402 5404 5406 5407 5408 5409
5353 5354 5354 5355 5356 5356 5357 5357 5356 5357 5358 5359 5359 5360 5361 5362 5364 5365 5367 5368 5369 5371 5371 5371 5371 5371 5372 5373 5375 5376 5378 5380 5382 5385 5388 5390 5393 5395 5396 5398 5400 5402 5403
5347 5348 5348 5349 5350 5350 5350 5350 5350 5351 5351 5352 5353 5355 5356 5356 5357 5358 5360 5361 5363 5364 5363 5364 5364 5364 5365 5367 5368 5370 5371 5373 5375 5379 5382 5384 5387 5388 5390 5392 5394 5396 5397
5341 5342 5343 5343 5343 5343 5343 5343 5344 5344 5345 5345 5347 5348 5349 5350 5351 5352 5353 5355 5355 5356 5356 5357 5358 5359 5360 5362 5363 5364 5366 5368 5370 5373 5376 5378 5380 5382 5384 5386 5388 5390 5391
5336 5336 5337 5337 5337 5337 5337 5337 5338 5338 5338 5339 5340 5342 5343 5344 5345 5346 5347 5347 5347 5348 5350 5351 5352 5354 5355 5357 5358 5360 5362 5364 5366 5368 5370 5373 5375 5377 5379 5381 5382 5384 5385
5331 5332 5333 5332 5332 5332 5332 5332 5332 5332 5333 5334 5334 5335 5336 5337 5338 5339 5340 5340 5341 5342 5344 5346 5348 5349 5351 5352 5354 5356 5358 5360 5362 5364 5366 5368 5370 5372 5374 5376 5377 5379 5381
5326 5326 5328 5327 5326 5326 5326 5326 5326 5327 5328 5328 5328 5329 5331 5331 5331 5332 5333 5335 5336 5337 5339 5342 5344 5346 5347 5349 5351 5352 5354 5356 5358 5360 5362 5363 5366 5368 5370 5372 5373 5374 5376
5321 5321 5321 5321 5321 5321 5321 5321 5321 5321 5321 5321 5322 5323 5325 5325 5325 5326 5328 5330 5332 5334 5336 5338 5340 5342 5344 5346 5348 5349 5351 5353 5355 5356 5358 5360 5362 5364 5366 5368 5369 5370 5371
5317 5317 5317 5316 5316 5317 5315 5315 5315 5315 5315 5316 5317 5318 5319 5319 5320 5322 5323 5326 5328 5330 5332 5335 5336 5338 5341 5343 5345 5347 5348 5350 5352 5354 5355 5357 5359 5361 5363 5364 5365 5366 5367
5313 5312 5312 5312 5311 5311 5310 5310 5310 5310 5310 5311 5312 5312 5313 5314 5316 5317 5319 5322 5324 5326 5328 5331 5333 5335 5338 5340 5342 5344 5346 5348 5350 5352 5353 5355 5356 5358 5359 5360 5361 5361 5363
5309 5308 5308 5307 5307 5306 5306 5305 5305 5306 5306 5307 5308 5308 5309 5310 5312 5314 5316 5318 5320 5322 5325 5327 5330 5332 5335 5338 5340 5342 5345 5347 5349 5351 5352 5353 5354 5355 5356 5356 5357 5357 5358
5304 5304 5304 5303 5303 5302 5302 5302 5302 5302 5302 5303 5303 5304 5306 5307 5308 5310 5313 5315 5317 5319 5322 5324 5327 5330 5333 5336 5338 5341 5343 5345 5347 5349 5350 5351 5352 5352 5353 5353 5354 5354 5354